EW7149 Weather Reports


Display with metric or nautical units.
time (UTC)temp
F
wind
direction
speed
MPH
gust
MPH
rain 1hr
in
rain 24hr
in
rain mn
in
humidity
%
barometer
mb
20260509002944 62 313 0.0 0.0 0.00 0.00 0.00 47 1011.6
20260509002427 62 313 0.0 0.0 0.00 0.00 0.00 46 1011.7
20260509001934 63 313 0.0 0.0 0.00 0.00 0.00 47 1011.7
20260509001434 63 313 0.0 0.0 0.00 0.00 0.00 47 1011.6
20260509000928 63 313 0.0 0.0 0.00 0.00 0.00 46 1011.5
20260509000432 63 313 0.0 0.0 0.00 0.00 0.00 46 1011.4
20260508235421 64 313 0.0 0.0 0.00 0.00 0.00 45 1011.3
20260508234916 64 313 0.0 0.0 0.00 0.00 0.00 43 1011.3
20260508234401 64 313 0.0 0.0 0.00 0.00 0.00 42 1011.3
20260508233908 64 313 0.0 0.0 0.00 0.00 0.00 42 1011.2
20260508233356 64 313 0.0 0.0 0.00 0.00 0.00 41 1011.2
20260508232902 64 313 0.0 0.0 0.00 0.00 0.00 41 1011.1
20260508232405 65 313 0.0 0.0 0.00 0.00 0.00 41 1011.1
20260508231851 65 313 0.0 0.0 0.00 0.00 0.00 40 1011.0
20260508230843 65 313 0.0 0.0 0.00 0.00 0.00 39 1011.0
20260508225855 65 313 0.0 0.0 0.00 0.00 0.00 39 1011.0
20260508225353 65 317 0.0 0.0 0.00 0.00 0.00 39 1011.1
20260508224847 65 275 0.0 0.0 0.00 0.00 0.00 39 1011.1
20260508224339 65 281 0.0 0.0 0.00 0.00 0.00 38 1011.0
20260508223835 65 293 0.0 0.0 0.00 0.00 0.00 38 1010.9
20260508223329 66 295 0.0 0.0 0.00 0.00 0.00 38 1010.9
20260508222812 66 292 0.0 0.0 0.00 0.00 0.00 37 1010.9
20260508222311 66 231 0.0 0.0 0.00 0.00 0.00 38 1010.9
20260508221752 66 251 0.0 3.0 0.00 0.00 0.00 37 1010.9
20260508221246 66 296 0.0 2.0 0.00 0.00 0.00 37 1011.0
20260508220753 66 240 0.0 0.0 0.00 0.00 0.00 37 1010.9
20260508220302 66 247 0.0 6.0 0.00 0.00 0.00 36 1011.0
20260508215808 66 21 0.0 5.0 0.00 0.00 0.00 36 1011.0
20260508215253 67 269 0.0 4.0 0.00 0.00 0.00 36 1010.9
20260508214742 67 303 0.0 3.0 0.00 0.00 0.00 35 1010.9
20260508214249 67 303 0.0 0.0 0.00 0.00 0.00 37 1010.9
20260508213750 67 255 0.0 2.0 0.00 0.00 0.00 35 1010.9
20260508213256 67 170 0.0 0.0 0.00 0.00 0.00 35 1010.8
20260508212231 67 167 0.0 5.0 0.00 0.00 0.00 34 1010.8
20260508211723 68 251 0.0 8.0 0.00 0.00 0.00 35 1010.8
20260508211210 68 271 0.0 3.0 0.00 0.00 0.00 35 1010.8
20260508210655 68 281 0.0 0.0 0.00 0.00 0.00 35 1010.7
20260508210156 69 263 0.0 0.0 0.00 0.00 0.00 34 1010.8
20260508205647 69 292 0.0 0.0 0.00 0.00 0.00 33 1010.9
20260508205155 70 285 0.0 10.0 0.00 0.00 0.00 32 1010.8
20260508204640 70 140 1.0 10.0 0.00 0.00 0.00 32 1010.9
20260508204130 70 262 1.0 10.0 0.00 0.00 0.00 31 1010.9
20260508203624 70 170 1.0 10.0 0.00 0.00 0.00 32 1010.9
20260508203121 70 177 0.0 6.0 0.00 0.00 0.00 34 1011.1
20260508201054 70 288 0.0 6.0 0.00 0.00 0.00 33 1011.1
20260508200550 69 271 0.0 10.0 0.00 0.00 0.00 32 1011.1
20260508194525 69 275 2.0 10.0 0.00 0.00 0.00 35 1011.3
20260508194031 69 242 3.0 10.0 0.00 0.00 0.00 34 1011.3
20260508193541 69 173 3.0 11.0 0.00 0.00 0.00 33 1011.5
20260508192525 68 144 2.0 12.0 0.00 0.00 0.00 35 1011.6
20260508192025 68 299 3.0 12.0 0.00 0.00 0.00 33 1011.8
20260508191028 68 253 2.0 12.0 0.00 0.00 0.00 33 1012.0
20260508190523 69 330 2.0 10.0 0.00 0.00 0.00 33 1012.0
20260508190016 69 275 3.0 10.0 0.00 0.00 0.00 34 1012.2
20260508185504 68 288 3.0 13.0 0.00 0.00 0.00 34 1012.2
20260508185005 68 114 4.0 13.0 0.00 0.00 0.00 34 1012.2
20260508183951 69 256 2.0 13.0 0.00 0.00 0.00 35 1012.2
20260508183441 69 261 2.0 7.0 0.00 0.00 0.00 37 1012.2
20260508182412 68 71 2.0 9.0 0.00 0.00 0.00 37 1012.3
20260508181917 67 269 3.0 11.0 0.00 0.00 0.00 36 1012.4
20260508181417 67 305 4.0 11.0 0.00 0.00 0.00 35 1012.4
20260508180907 67 311 3.0 14.0 0.00 0.00 0.00 35 1012.6
20260508175403 67 265 4.0 14.0 0.00 0.00 0.00 35 1012.4
20260508174847 67 213 3.0 11.0 0.00 0.00 0.00 37 1012.4
20260508174348 67 212 3.0 10.0 0.00 0.00 0.00 38 1012.5
20260508173830 67 319 3.0 15.0 0.00 0.00 0.00 37 1012.8
20260508173321 67 148 3.0 15.0 0.00 0.00 0.00 38 1012.7
20260508172813 67 281 4.0 15.0 0.00 0.00 0.00 36 1012.8
20260508172307 67 234 3.0 15.0 0.00 0.00 0.00 36 1012.8
20260508171759 67 143 2.0 8.0 0.00 0.00 0.00 40 1013.0
20260508170749 65 213 3.0 11.0 0.00 0.00 0.00 38 1013.2
20260508170242 65 239 3.0 11.0 0.00 0.00 0.00 40 1013.2
20260508165737 65 293 3.0 11.0 0.00 0.00 0.00 38 1013.1
20260508165228 65 255 3.0 11.0 0.00 0.00 0.00 38 1013.2
20260508164733 65 111 3.0 9.0 0.00 0.00 0.00 40 1013.4
20260508164224 66 321 2.0 15.0 0.00 0.00 0.00 39 1013.4
20260508163715 66 253 2.0 15.0 0.00 0.00 0.00 42 1013.3
20260508163211 65 229 3.0 15.0 0.00 0.00 0.00 41 1013.4
20260508162714 65 130 4.0 15.0 0.00 0.00 0.00 39 1013.5
20260508162222 65 246 4.0 11.0 0.00 0.00 0.00 38 1013.5
20260508161720 65 178 3.0 11.0 0.00 0.00 0.00 39 1013.5
20260508161226 65 281 3.0 11.0 0.00 0.00 0.00 37 1013.6
20260508160724 64 150 2.0 10.0 0.00 0.00 0.00 42 1013.7
20260508155656 64 315 3.0 10.0 0.00 0.00 0.00 41 1013.8
20260508155206 63 134 3.0 10.0 0.00 0.00 0.00 40 1013.8
20260508154650 64 116 2.0 11.0 0.00 0.00 0.00 41 1013.9
20260508154147 63 148 2.0 11.0 0.00 0.00 0.00 42 1014.0
20260508153645 63 96 2.0 11.0 0.00 0.00 0.00 42 1014.0
20260508153135 63 288 3.0 11.0 0.00 0.00 0.00 41 1014.1
20260508152618 63 150 3.0 10.0 0.00 0.00 0.00 43 1014.1
20260508152108 63 286 3.0 10.0 0.00 0.00 0.00 43 1014.2
20260508151104 63 261 2.0 10.0 0.00 0.00 0.00 44 1014.4
20260508150553 62 225 2.0 13.0 0.00 0.00 0.00 42 1014.4
20260508145533 62 246 3.0 13.0 0.00 0.00 0.00 44 1014.4
20260508145043 61 342 3.0 13.0 0.00 0.00 0.00 43 1014.4
20260508144547 61 304 3.0 11.0 0.00 0.00 0.00 43 1014.4
20260508143548 61 241 2.0 9.0 0.00 0.00 0.00 43 1014.4
20260508143029 61 287 2.0 7.0 0.00 0.00 0.00 43 1014.4
20260508140431 59 192 2.0 7.0 0.00 0.00 0.00 49 1014.6
20260508135929 59 284 2.0 7.0 0.00 0.00 0.00 49 1014.6
20260508135410 58 166 2.0 6.0 0.00 0.00 0.00 48 1014.6
20260508134915 58 191 2.0 9.0 0.00 0.00 0.00 49 1014.6
20260508134401 58 255 2.0 9.0 0.00 0.00 0.00 50 1014.7
20260508133401 57 227 2.0 9.0 0.00 0.00 0.00 50 1014.7
20260508132354 56 248 1.0 6.0 0.00 0.00 0.00 53 1014.8
20260508131841 55 5 1.0 5.0 0.00 0.00 0.00 54 1014.8
20260508131330 55 259 1.0 5.0 0.00 0.00 0.00 54 1014.9
20260508130328 54 292 2.0 6.0 0.00 0.00 0.00 53 1015.0
20260508125834 54 278 2.0 9.0 0.00 0.00 0.00 54 1015.0
20260508125337 53 276 2.0 9.0 0.00 0.00 0.00 56 1014.9
20260508124835 53 206 2.0 9.0 0.00 0.00 0.00 57 1014.9
20260508124323 52 270 2.0 9.0 0.00 0.00 0.00 57 1015.0
20260508123821 51 243 1.0 8.0 0.00 0.00 0.00 58 1014.9
20260508123304 51 146 1.0 7.0 0.00 0.00 0.00 58 1014.8
20260508122806 50 255 0.0 5.0 0.00 0.00 0.00 59 1014.8
20260508122259 50 246 1.0 5.0 0.00 0.00 0.00 59 1014.9
20260508121747 49 291 1.0 5.0 0.00 0.00 0.00 59 1014.9
20260508121239 48 274 1.0 5.0 0.00 0.00 0.00 59 1014.9
20260508120724 48 265 0.0 3.0 0.00 0.00 0.00 58 1014.9
20260508120222 47 266 0.0 3.0 0.00 0.00 0.00 56 1014.8
20260508115724 46 13 0.0 0.0 0.00 0.00 0.00 53 1014.8
20260508115217 46 253 0.0 0.0 0.00 0.00 0.00 52 1014.8
20260508114710 46 310 0.0 0.0 0.00 0.00 0.00 51 1014.7
20260508114217 45 310 0.0 0.0 0.00 0.00 0.00 50 1014.6
20260508113209 45 310 0.0 0.0 0.00 0.00 0.00 48 1014.5
20260508112708 44 311 0.0 0.0 0.00 0.00 0.00 48 1014.6
20260508111715 44 311 0.0 0.0 0.00 0.00 0.00 48 1014.4
20260508111224 43 311 0.0 0.0 0.00 0.00 0.00 48 1014.3
20260508110721 43 311 0.0 0.0 0.00 0.00 0.00 47 1014.3
20260508110202 43 311 0.0 0.0 0.00 0.00 0.00 47 1014.2
20260508105644 43 311 0.0 0.0 0.00 0.00 0.00 48 1014.1
20260508105147 43 311 0.0 0.0 0.00 0.00 0.00 48 1014.1
20260508104647 43 311 0.0 0.0 0.00 0.00 0.00 48 1014.0
20260508104137 43 311 0.0 0.0 0.00 0.00 0.00 49 1013.9
20260508103641 43 311 0.0 0.0 0.00 0.00 0.00 49 1013.8
20260508103131 43 311 0.0 0.0 0.00 0.00 0.00 49 1013.8
20260508102640 43 311 0.0 0.0 0.00 0.00 0.00 49 1013.9
20260508101138 43 313 0.0 0.0 0.00 0.00 0.00 50 1013.6
20260508100642 43 313 0.0 0.0 0.00 0.00 0.00 51 1013.5
20260508100127 43 313 0.0 0.0 0.00 0.00 0.00 52 1013.5
20260508095627 43 313 0.0 0.0 0.00 0.00 0.00 53 1013.5
20260508095125 43 313 0.0 0.0 0.00 0.00 0.00 53 1013.6
20260508094619 43 313 0.0 0.0 0.00 0.00 0.00 54 1013.7
20260508094114 43 313 0.0 0.0 0.00 0.00 0.00 55 1013.7
20260508093607 43 313 0.0 0.0 0.00 0.00 0.00 55 1013.6
20260508093057 43 313 0.0 0.0 0.00 0.00 0.00 56 1013.6
20260508092055 43 313 0.0 0.0 0.00 0.00 0.00 56 1013.5
20260508091549 43 313 0.0 0.0 0.00 0.00 0.00 56 1013.5
20260508091051 44 313 0.0 0.0 0.00 0.00 0.00 57 1013.4
20260508090533 44 313 0.0 0.0 0.00 0.00 0.00 58 1013.4
20260508090022 44 313 0.0 0.0 0.00 0.00 0.00 59 1013.3
20260508085010 44 313 0.0 0.0 0.00 0.00 0.00 61 1013.1
20260508084520 44 313 0.0 0.0 0.00 0.00 0.00 61 1013.2
20260508083522 45 313 0.0 0.0 0.00 0.00 0.00 61 1013.2
20260508083030 45 313 0.0 0.0 0.00 0.00 0.00 61 1013.2
20260508082520 46 313 0.0 0.0 0.00 0.00 0.00 61 1013.2
20260508082003 46 313 0.0 0.0 0.00 0.00 0.00 61 1013.1
20260508081445 46 313 0.0 0.0 0.00 0.00 0.00 61 1013.0
20260508080937 47 313 0.0 0.0 0.00 0.00 0.00 60 1013.0
20260508080441 47 313 0.0 0.0 0.00 0.00 0.00 60 1013.1
20260508075941 47 313 0.0 0.0 0.00 0.00 0.00 60 1013.0
20260508075428 48 313 0.0 0.0 0.00 0.00 0.00 60 1013.0
20260508074406 48 313 0.0 0.0 0.00 0.00 0.00 60 1012.9
20260508073857 48 313 0.0 0.0 0.00 0.00 0.00 60 1012.8
20260508073358 49 313 0.0 0.0 0.00 0.00 0.00 60 1012.7
20260508072902 49 314 0.0 0.0 0.00 0.00 0.00 60 1012.5
20260508072401 49 314 0.0 0.0 0.00 0.00 0.00 60 1012.5
20260508071852 49 314 0.0 0.0 0.00 0.00 0.00 60 1012.4
20260508071403 49 314 0.0 0.0 0.00 0.00 0.00 59 1012.4
20260508070402 50 288 0.0 0.0 0.00 0.00 0.00 59 1012.2
20260508065851 50 250 0.0 0.0 0.00 0.00 0.00 59 1012.2
20260508065338 50 281 0.0 3.0 0.00 0.00 0.00 59 1012.2
20260508064818 50 67 0.0 2.0 0.00 0.00 0.00 59 1012.1
20260508063756 50 298 0.0 2.0 0.00 0.00 0.00 58 1012.1
20260508063239 51 297 0.0 1.0 0.00 0.00 0.00 58 1012.1
20260508062746 51 278 0.0 1.0 0.00 0.00 0.00 58 1012.1
20260508062233 51 292 0.0 1.0 0.00 0.00 0.00 58 1012.0
20260508061224 51 293 0.0 2.0 0.00 0.01 0.00 58 1012.0
20260508060728 51 296 0.0 0.0 0.00 0.01 0.00 58 1011.9
20260508060222 51 23 0.0 3.0 0.00 0.01 0.00 59 1011.8
20260508055731 51 258 0.0 1.0 0.00 0.01 0.00 59 1011.7
20260508055217 51 265 0.0 0.0 0.00 0.01 0.00 59 1011.6
20260508054718 51 271 0.0 0.0 0.00 0.01 0.00 59 1011.6
20260508054213 50 288 0.0 2.0 0.00 0.01 0.00 59 1011.5
20260508053708 50 254 0.0 0.0 0.00 0.01 0.00 58 1011.5
20260508053213 50 284 0.0 0.0 0.00 0.01 0.00 55 1011.5
20260508052202 49 337 0.0 1.0 0.00 0.01 0.00 39 1011.5
20260508051155 49 290 0.0 0.0 0.00 0.01 0.00 17 1011.5
20260508050649 49 296 0.0 0.0 0.00 0.01 0.00 14 1011.4
20260508050145 49 298 0.0 0.0 0.00 0.01 0.00 11 1011.4
20260508045649 50 196 0.0 0.0 0.00 0.01 0.00 7 1011.3
20260508045133 50 195 0.0 0.0 0.00 0.01 0.00 8 1011.2
20260508044142 50 170 0.0 0.0 0.00 0.01 0.00 11 1011.0
20260508043637 50 170 0.0 0.0 0.00 0.01 0.00 11 1010.9
20260508043122 51 170 0.0 0.0 0.00 0.01 0.00 13 1010.9
20260508041652 51 170 0.0 0.0 0.00 0.01 0.00 13 1010.8
20260508041136 51 170 0.0 0.0 0.00 0.02 0.00 15 1010.7
20260508040622 51 169 0.0 0.0 0.00 0.02 0.00 18 1010.7
20260508040107 52 169 0.0 0.0 0.00 0.02 0.00 18 1010.6
20260508035602 52 169 0.0 0.0 0.00 0.02 0.02 19 1010.6
20260508034106 52 168 0.0 0.0 0.00 0.02 0.02 25 1010.5
20260508033614 53 138 0.0 0.0 0.00 0.02 0.02 26 1010.5
20260508033115 53 138 0.0 0.0 0.00 0.02 0.02 28 1010.5
20260508032051 53 138 0.0 0.0 0.00 0.02 0.02 31 1010.4
20260508031551 53 138 0.0 0.0 0.00 0.02 0.02 33 1010.4
20260508031051 54 138 0.0 0.0 0.00 0.02 0.02 34 1010.4
20260508030536 54 153 0.0 0.0 0.00 0.02 0.02 35 1010.3
20260508030038 54 153 0.0 0.0 0.00 0.02 0.02 37 1010.3
20260508025525 54 150 0.0 0.0 0.00 0.02 0.02 39 1010.3
20260508024524 55 142 0.0 0.0 0.00 0.02 0.02 42 1010.2
20260508024010 55 153 0.0 0.0 0.00 0.02 0.02 43 1010.2
20260508023459 55 153 0.0 0.0 0.00 0.02 0.02 44 1010.2
20260508021948 55 150 0.0 0.0 0.00 0.02 0.02 47 1010.2
20260508021452 55 148 0.0 0.0 0.00 0.02 0.02 48 1010.2
20260508020933 55 148 0.0 0.0 0.00 0.02 0.02 49 1010.1
20260508020434 55 140 0.0 0.0 0.00 0.02 0.02 50 1010.1
20260508015925 56 134 0.0 6.0 0.00 0.02 0.02 51 1010.1
20260508015424 56 166 0.0 6.0 0.00 0.02 0.02 52 1010.0
20260508014933 56 132 0.0 4.0 0.00 0.02 0.02 53 1009.9
20260508014426 56 158 0.0 9.0 0.00 0.02 0.02 54 1009.9
20260508013908 56 150 0.0 9.0 0.00 0.02 0.02 55 1009.9
20260508012908 56 190 0.0 7.0 0.00 0.03 0.02 56 1009.7
20260508012353 56 157 0.0 6.0 0.00 0.03 0.02 57 1009.7
20260508011900 57 148 0.0 0.0 0.00 0.03 0.02 57 1009.6
20260508011359 57 163 1.0 7.0 0.00 0.03 0.02 57 1009.5
20260508010903 57 150 1.0 7.0 0.00 0.03 0.02 58 1009.4
20260508010403 57 146 0.0 7.0 0.00 0.03 0.02 58 1009.4
20260508005845 57 157 0.0 5.0 0.00 0.03 0.02 58 1009.4
20260508005331 57 152 0.0 0.0 0.00 0.03 0.02 58 1009.3
20260508004840 57 146 0.0 6.0 0.00 0.03 0.02 58 1009.1